| time (UTC) | temp C | wind direction | speed KPH | gust KPH | rain 1hr cm | rain 24hr cm | rain mn cm | humidity % | barometer mb |
| 20260507041104 | 24 | 189 | 8.0 | 11.3 | 0.00 | 0.00 | 0.00 | 67 | 1015.6 |
| 20260507040601 | 24 | 178 | 12.9 | 14.5 | 0.00 | 0.00 | 0.00 | 65 | 1015.6 |
| 20260507040057 | 24 | 182 | 4.8 | 4.8 | 0.00 | 0.00 | 0.00 | 65 | 1015.7 |
| 20260507035553 | 24 | 180 | 6.4 | 8.0 | 0.00 | 0.00 | 0.00 | 65 | 1015.8 |
| 20260507035049 | 24 | 170 | 4.8 | 4.8 | 0.00 | 0.00 | 0.00 | 65 | 1015.8 |
| 20260507034546 | 24 | 183 | 8.0 | 12.9 | 0.00 | 0.00 | 0.00 | 64 | 1015.9 |
| 20260507034044 | 24 | 175 | 4.8 | 4.8 | 0.00 | 0.00 | 0.00 | 64 | 1016.1 |
| 20260507033542 | 24 | 207 | 11.3 | 16.1 | 0.00 | 0.00 | 0.00 | 64 | 1015.9 |
| 20260507033039 | 24 | 175 | 11.3 | 14.5 | 0.00 | 0.00 | 0.00 | 64 | 1015.9 |
| 20260507032536 | 24 | 160 | 6.4 | 9.7 | 0.00 | 0.00 | 0.00 | 64 | 1015.9 |
| 20260507032032 | 24 | 186 | 6.4 | 8.0 | 0.00 | 0.00 | 0.00 | 64 | 1015.8 |
| 20260507031528 | 24 | 160 | 8.0 | 11.3 | 0.00 | 0.00 | 0.00 | 64 | 1016.0 |
| 20260507031026 | 24 | 165 | 8.0 | 11.3 | 0.00 | 0.00 | 0.00 | 64 | 1015.8 |
| 20260507030522 | 24 | 186 | 6.4 | 9.7 | 0.00 | 0.00 | 0.00 | 65 | 1016.0 |
| 20260507030020 | 24 | 195 | 9.7 | 11.3 | 0.00 | 0.00 | 0.00 | 65 | 1015.8 |
| 20260507025517 | 24 | 207 | 6.4 | 9.7 | 0.00 | 0.00 | 0.00 | 65 | 1015.7 |
| 20260507025014 | 24 | 156 | 3.2 | 3.2 | 0.00 | 0.00 | 0.00 | 65 | 1016.0 |
| 20260507024512 | 24 | 178 | 8.0 | 11.3 | 0.00 | 0.00 | 0.00 | 65 | 1015.8 |
| 20260507024009 | 24 | 196 | 8.0 | 9.7 | 0.00 | 0.00 | 0.00 | 65 | 1015.5 |
| 20260507023504 | 24 | 195 | 8.0 | 11.3 | 0.00 | 0.00 | 0.00 | 65 | 1015.9 |
| 20260507023002 | 24 | 189 | 11.3 | 16.1 | 0.00 | 0.00 | 0.00 | 66 | 1015.7 |
| 20260507022459 | 24 | 186 | 8.0 | 11.3 | 0.00 | 0.00 | 0.00 | 67 | 1015.9 |
| 20260507021954 | 24 | 213 | 4.8 | 4.8 | 0.00 | 0.00 | 0.00 | 68 | 1015.7 |
| 20260507021450 | 24 | 199 | 8.0 | 9.7 | 0.00 | 0.00 | 0.00 | 68 | 1015.8 |
| 20260507020947 | 24 | 182 | 6.4 | 8.0 | 0.00 | 0.00 | 0.00 | 68 | 1015.7 |
| 20260507020444 | 24 | 186 | 8.0 | 9.7 | 0.00 | 0.00 | 0.00 | 68 | 1015.5 |
| 20260507015941 | 24 | 218 | 4.8 | 8.0 | 0.00 | 0.00 | 0.00 | 69 | 1015.8 |
| 20260507015440 | 24 | 197 | 6.4 | 8.0 | 0.00 | 0.00 | 0.00 | 69 | 1015.6 |
| 20260507014936 | 24 | 189 | 12.9 | 16.1 | 0.00 | 0.00 | 0.00 | 70 | 1015.6 |
| 20260507014433 | 24 | 204 | 4.8 | 8.0 | 0.00 | 0.00 | 0.00 | 72 | 1015.7 |
| 20260507013929 | 24 | 165 | 9.7 | 11.3 | 0.00 | 0.00 | 0.00 | 76 | 1015.8 |
| 20260507013426 | 24 | 217 | 4.8 | 9.7 | 0.00 | 0.00 | 0.00 | 78 | 1015.7 |
| 20260507012923 | 23 | 195 | 11.3 | 12.9 | 0.00 | 0.00 | 0.00 | 80 | 1015.8 |
| 20260507012420 | 23 | 182 | 16.1 | 17.7 | 0.00 | 0.00 | 0.00 | 81 | 1015.7 |
| 20260507011917 | 23 | 188 | 9.7 | 14.5 | 0.00 | 0.00 | 0.00 | 82 | 1015.7 |
| 20260507011414 | 23 | 182 | 14.5 | 14.5 | 0.00 | 0.00 | 0.00 | 83 | 1015.7 |
| 20260507010913 | 23 | 189 | 12.9 | 14.5 | 0.00 | 0.00 | 0.00 | 83 | 1015.5 |
| 20260507010409 | 23 | 160 | 4.8 | 9.7 | 0.00 | 0.00 | 0.00 | 83 | 1015.6 |
| 20260507005907 | 23 | 201 | 12.9 | 17.7 | 0.00 | 0.00 | 0.00 | 84 | 1015.5 |
| 20260507005403 | 23 | 188 | 11.3 | 16.1 | 0.00 | 0.00 | 0.00 | 84 | 1015.5 |
| 20260507004900 | 23 | 189 | 8.0 | 11.3 | 0.00 | 0.00 | 0.00 | 85 | 1015.7 |
| 20260507004357 | 23 | 204 | 11.3 | 12.9 | 0.00 | 0.00 | 0.00 | 85 | 1015.5 |
| 20260507003854 | 23 | 158 | 11.3 | 14.5 | 0.00 | 0.00 | 0.00 | 85 | 1015.6 |
| 20260507003349 | 23 | 170 | 11.3 | 14.5 | 0.00 | 0.00 | 0.00 | 86 | 1015.5 |
| 20260507002845 | 23 | 173 | 12.9 | 14.5 | 0.00 | 0.00 | 0.00 | 85 | 1015.0 |
| 20260507002341 | 23 | 125 | 9.7 | 12.9 | 0.00 | 0.00 | 0.00 | 85 | 1015.3 |
| 20260507001838 | 23 | 185 | 17.7 | 22.5 | 0.00 | 0.00 | 0.00 | 86 | 1015.3 |
| 20260507001335 | 23 | 162 | 9.7 | 12.9 | 0.00 | 0.00 | 0.00 | 86 | 1015.2 |
| 20260507000832 | 23 | 175 | 8.0 | 9.7 | 0.00 | 0.00 | 0.00 | 86 | 1015.1 |
| 20260507000328 | 23 | 158 | 14.5 | 16.1 | 0.00 | 0.00 | 0.00 | 86 | 1015.2 |
| 20260506235824 | 23 | 189 | 16.1 | 17.7 | 0.00 | 0.00 | 0.00 | 86 | 1015.0 |
| 20260506235320 | 23 | 169 | 9.7 | 14.5 | 0.00 | 0.00 | 0.00 | 85 | 1014.8 |
| 20260506234817 | 24 | 168 | 17.7 | 24.1 | 0.00 | 0.00 | 0.00 | 85 | 1014.9 |
| 20260506234315 | 24 | 190 | 16.1 | 17.7 | 0.00 | 0.00 | 0.00 | 85 | 1015.0 |
| 20260506233812 | 24 | 177 | 14.5 | 16.1 | 0.00 | 0.00 | 0.00 | 84 | 1014.9 |
| 20260506233308 | 24 | 176 | 19.3 | 20.9 | 0.00 | 0.00 | 0.00 | 84 | 1014.9 |
| 20260506232805 | 24 | 114 | 19.3 | 24.1 | 0.00 | 0.00 | 0.00 | 83 | 1014.9 |
| 20260506232300 | 24 | 136 | 12.9 | 16.1 | 0.00 | 0.00 | 0.00 | 83 | 1014.8 |
| 20260506231757 | 24 | 198 | 17.7 | 22.5 | 0.00 | 0.00 | 0.00 | 83 | 1014.9 |
| 20260506231255 | 25 | 158 | 14.5 | 16.1 | 0.00 | 0.00 | 0.00 | 82 | 1014.6 |
| 20260506230752 | 25 | 171 | 16.1 | 22.5 | 0.00 | 0.00 | 0.00 | 81 | 1015.0 |
| 20260506230249 | 25 | 202 | 14.5 | 20.9 | 0.00 | 0.00 | 0.00 | 81 | 1014.9 |
| 20260506225745 | 25 | 188 | 14.5 | 14.5 | 0.00 | 0.00 | 0.00 | 80 | 1014.9 |
| 20260506225243 | 25 | 151 | 17.7 | 22.5 | 0.00 | 0.00 | 0.00 | 80 | 1015.1 |
| 20260506224738 | 25 | 204 | 14.5 | 16.1 | 0.00 | 0.00 | 0.00 | 80 | 1014.8 |
| 20260506224236 | 25 | 204 | 16.1 | 20.9 | 0.00 | 0.00 | 0.00 | 80 | 1015.2 |
| 20260506223732 | 25 | 192 | 14.5 | 20.9 | 0.00 | 0.00 | 0.00 | 80 | 1015.0 |
| 20260506223228 | 25 | 188 | 16.1 | 16.1 | 0.00 | 0.00 | 0.00 | 80 | 1015.0 |
| 20260506222725 | 25 | 167 | 16.1 | 17.7 | 0.00 | 0.00 | 0.00 | 80 | 1015.1 |
| 20260506222220 | 25 | 179 | 16.1 | 20.9 | 0.00 | 0.00 | 0.00 | 79 | 1015.2 |
| 20260506221719 | 25 | 190 | 12.9 | 14.5 | 0.00 | 0.00 | 0.00 | 79 | 1015.2 |
| 20260506221217 | 25 | 181 | 16.1 | 17.7 | 0.00 | 0.00 | 0.00 | 79 | 1015.1 |
| 20260506220714 | 25 | 175 | 11.3 | 14.5 | 0.00 | 0.00 | 0.00 | 80 | 1015.3 |
| 20260506220208 | 25 | 198 | 12.9 | 16.1 | 0.00 | 0.00 | 0.00 | 79 | 1014.9 |
| 20260506215705 | 25 | 163 | 11.3 | 14.5 | 0.00 | 0.00 | 0.00 | 79 | 1015.0 |
| 20260506215201 | 25 | 170 | 12.9 | 14.5 | 0.00 | 0.00 | 0.00 | 80 | 1014.9 |
| 20260506214658 | 25 | 186 | 8.0 | 11.3 | 0.00 | 0.00 | 0.00 | 81 | 1015.0 |
| 20260506214155 | 25 | 150 | 14.5 | 17.7 | 0.00 | 0.00 | 0.00 | 80 | 1015.1 |
| 20260506213654 | 25 | 167 | 17.7 | 24.1 | 0.00 | 0.00 | 0.00 | 80 | 1014.9 |
| 20260506213150 | 25 | 180 | 9.7 | 11.3 | 0.00 | 0.00 | 0.00 | 79 | 1015.0 |
| 20260506212647 | 26 | 134 | 8.0 | 9.7 | 0.00 | 0.00 | 0.00 | 80 | 1015.0 |
| 20260506212142 | 25 | 113 | 6.4 | 9.7 | 0.00 | 0.00 | 0.00 | 80 | 1014.9 |
| 20260506211638 | 26 | 181 | 8.0 | 9.7 | 0.00 | 0.00 | 0.00 | 80 | 1015.0 |
| 20260506211135 | 26 | 117 | 8.0 | 9.7 | 0.00 | 0.00 | 0.00 | 79 | 1015.1 |
| 20260506210632 | 25 | 159 | 6.4 | 8.0 | 0.00 | 0.00 | 0.00 | 80 | 1015.3 |
| 20260506210128 | 26 | 129 | 11.3 | 12.9 | 0.00 | 0.00 | 0.00 | 80 | 1015.0 |
| 20260506205625 | 26 | 146 | 8.0 | 11.3 | 0.00 | 0.00 | 0.00 | 79 | 1015.1 |
| 20260506205120 | 26 | 104 | 6.4 | 8.0 | 0.00 | 0.00 | 0.00 | 78 | 1015.1 |
| 20260506204619 | 26 | 162 | 8.0 | 14.5 | 0.00 | 0.00 | 0.00 | 78 | 1015.2 |
| 20260506204115 | 26 | 112 | 6.4 | 9.7 | 0.00 | 0.00 | 0.00 | 78 | 1015.3 |
| 20260506203614 | 26 | 131 | 9.7 | 11.3 | 0.00 | 0.00 | 0.00 | 79 | 1015.1 |
| 20260506203109 | 26 | 131 | 9.7 | 11.3 | 0.00 | 0.00 | 0.00 | 77 | 1015.2 |
| 20260506202608 | 26 | 106 | 8.0 | 9.7 | 0.00 | 0.00 | 0.00 | 79 | 1015.3 |
| 20260506202103 | 25 | 130 | 11.3 | 14.5 | 0.00 | 0.00 | 0.00 | 79 | 1015.3 |
| 20260506201601 | 25 | 129 | 11.3 | 14.5 | 0.00 | 0.00 | 0.00 | 79 | 1015.4 |
| 20260506201058 | 26 | 106 | 9.7 | 11.3 | 0.00 | 0.00 | 0.00 | 78 | 1015.5 |
| 20260506200554 | 25 | 101 | 11.3 | 14.5 | 0.00 | 0.00 | 0.00 | 78 | 1015.6 |
| 20260506200051 | 25 | 92 | 12.9 | 16.1 | 0.00 | 0.00 | 0.00 | 79 | 1015.7 |
| 20260506195547 | 25 | 107 | 12.9 | 14.5 | 0.00 | 0.00 | 0.00 | 79 | 1015.9 |
| 20260506195044 | 26 | 129 | 12.9 | 14.5 | 0.00 | 0.00 | 0.00 | 78 | 1015.7 |
| 20260506194542 | 25 | 108 | 11.3 | 12.9 | 0.00 | 0.00 | 0.00 | 79 | 1015.7 |
| 20260506194038 | 25 | 98 | 14.5 | 16.1 | 0.00 | 0.00 | 0.00 | 80 | 1015.6 |
| 20260506193535 | 25 | 109 | 9.7 | 11.3 | 0.00 | 0.00 | 0.00 | 80 | 1016.0 |
| 20260506193032 | 25 | 82 | 16.1 | 20.9 | 0.00 | 0.00 | 0.00 | 80 | 1016.0 |
| 20260506192529 | 25 | 117 | 16.1 | 16.1 | 0.00 | 0.00 | 0.00 | 79 | 1016.0 |
| 20260506192025 | 25 | 142 | 14.5 | 17.7 | 0.00 | 0.00 | 0.00 | 80 | 1016.2 |
| 20260506191522 | 25 | 73 | 12.9 | 14.5 | 0.00 | 0.00 | 0.00 | 79 | 1016.2 |
| 20260506191018 | 25 | 111 | 12.9 | 16.1 | 0.00 | 0.00 | 0.00 | 79 | 1016.2 |
| 20260506190515 | 25 | 182 | 11.3 | 12.9 | 0.00 | 0.00 | 0.00 | 79 | 1016.3 |
| 20260506190012 | 25 | 126 | 9.7 | 12.9 | 0.00 | 0.00 | 0.00 | 80 | 1016.5 |
| 20260506185509 | 25 | 92 | 14.5 | 16.1 | 0.00 | 0.00 | 0.00 | 80 | 1016.4 |
| 20260506185006 | 25 | 143 | 17.7 | 17.7 | 0.00 | 0.00 | 0.00 | 80 | 1016.4 |
| 20260506184503 | 25 | 103 | 17.7 | 20.9 | 0.00 | 0.00 | 0.00 | 79 | 1016.5 |
| 20260506184000 | 25 | 77 | 16.1 | 17.7 | 0.00 | 0.00 | 0.00 | 79 | 1016.5 |
| 20260506183456 | 25 | 100 | 16.1 | 16.1 | 0.00 | 0.00 | 0.00 | 79 | 1016.6 |
| 20260506182953 | 25 | 146 | 17.7 | 22.5 | 0.00 | 0.00 | 0.00 | 78 | 1016.6 |
| 20260506182450 | 25 | 97 | 16.1 | 17.7 | 0.00 | 0.00 | 0.00 | 79 | 1016.7 |
| 20260506181947 | 25 | 98 | 12.9 | 14.5 | 0.00 | 0.00 | 0.00 | 79 | 1016.7 |
| 20260506181445 | 25 | 124 | 16.1 | 17.7 | 0.00 | 0.00 | 0.00 | 78 | 1016.7 |
| 20260506180942 | 25 | 130 | 14.5 | 17.7 | 0.00 | 0.00 | 0.00 | 78 | 1017.0 |
| 20260506180438 | 25 | 137 | 16.1 | 16.1 | 0.00 | 0.00 | 0.00 | 78 | 1016.9 |
| 20260506175935 | 25 | 108 | 14.5 | 16.1 | 0.00 | 0.00 | 0.00 | 78 | 1017.0 |
| 20260506175432 | 25 | 123 | 16.1 | 17.7 | 0.00 | 0.00 | 0.00 | 77 | 1017.0 |
| 20260506174928 | 25 | 112 | 11.3 | 16.1 | 0.00 | 0.00 | 0.00 | 78 | 1017.1 |
| 20260506174426 | 25 | 121 | 14.5 | 17.7 | 0.00 | 0.00 | 0.00 | 77 | 1017.1 |
| 20260506173923 | 25 | 158 | 14.5 | 16.1 | 0.00 | 0.00 | 0.00 | 77 | 1017.3 |
| 20260506173420 | 25 | 122 | 12.9 | 14.5 | 0.00 | 0.00 | 0.00 | 77 | 1017.3 |
| 20260506172917 | 25 | 104 | 16.1 | 17.7 | 0.00 | 0.00 | 0.00 | 76 | 1017.2 |
| 20260506172414 | 25 | 93 | 12.9 | 16.1 | 0.00 | 0.00 | 0.00 | 77 | 1017.6 |
| 20260506171911 | 25 | 101 | 17.7 | 20.9 | 0.00 | 0.00 | 0.00 | 76 | 1017.6 |
| 20260506171408 | 25 | 92 | 14.5 | 16.1 | 0.00 | 0.00 | 0.00 | 76 | 1017.5 |
| 20260506170906 | 25 | 106 | 14.5 | 16.1 | 0.00 | 0.00 | 0.00 | 76 | 1017.3 |
| 20260506170401 | 25 | 119 | 14.5 | 16.1 | 0.00 | 0.00 | 0.00 | 76 | 1017.7 |
| 20260506165855 | 25 | 108 | 11.3 | 14.5 | 0.00 | 0.00 | 0.00 | 76 | 1017.6 |
| 20260506165353 | 25 | 143 | 11.3 | 12.9 | 0.00 | 0.00 | 0.00 | 76 | 1017.9 |
| 20260506164849 | 25 | 120 | 11.3 | 14.5 | 0.00 | 0.00 | 0.00 | 75 | 1017.6 |
| 20260506164345 | 25 | 145 | 12.9 | 16.1 | 0.00 | 0.00 | 0.00 | 75 | 1017.7 |
| 20260506163843 | 25 | 124 | 11.3 | 11.3 | 0.00 | 0.00 | 0.00 | 75 | 1018.0 |
| 20260506163338 | 25 | 107 | 14.5 | 20.9 | 0.00 | 0.00 | 0.00 | 75 | 1018.0 |
| 20260506162833 | 25 | 133 | 12.9 | 14.5 | 0.00 | 0.00 | 0.00 | 76 | 1017.9 |
| 20260506162332 | 25 | 107 | 11.3 | 12.9 | 0.00 | 0.00 | 0.00 | 76 | 1018.0 |
| 20260506161829 | 25 | 120 | 14.5 | 17.7 | 0.00 | 0.00 | 0.00 | 76 | 1018.0 |
| 20260506161326 | 25 | 115 | 9.7 | 11.3 | 0.00 | 0.00 | 0.00 | 76 | 1018.1 |
| 20260506160823 | 25 | 170 | 11.3 | 14.5 | 0.00 | 0.00 | 0.00 | 75 | 1018.1 |
| 20260506160319 | 25 | 137 | 11.3 | 12.9 | 0.00 | 0.00 | 0.00 | 74 | 1018.0 |
| 20260506155818 | 25 | 157 | 6.4 | 9.7 | 0.00 | 0.00 | 0.00 | 74 | 1018.1 |
| 20260506155314 | 25 | 137 | 11.3 | 12.9 | 0.00 | 0.00 | 0.00 | 73 | 1017.9 |
| 20260506153427 | 25 | 115 | 11.3 | 11.3 | 0.00 | 0.00 | 0.00 | 74 | 1018.0 |
| 20260506152925 | 25 | 102 | 12.9 | 17.7 | 0.00 | 0.00 | 0.00 | 74 | 1017.8 |
| 20260506152421 | 25 | 131 | 11.3 | 12.9 | 0.00 | 0.00 | 0.00 | 73 | 1017.8 |
| 20260506151920 | 25 | 146 | 8.0 | 11.3 | 0.00 | 0.00 | 0.00 | 74 | 1017.7 |
| 20260506151416 | 25 | 136 | 16.1 | 17.7 | 0.00 | 0.00 | 0.00 | 72 | 1018.0 |
| 20260506150914 | 25 | 128 | 9.7 | 11.3 | 0.00 | 0.00 | 0.00 | 72 | 1017.6 |
| 20260506150410 | 26 | 106 | 8.0 | 11.3 | 0.00 | 0.00 | 0.00 | 65 | 1017.7 |
| 20260506145907 | 27 | 147 | 4.8 | 4.8 | 0.00 | 0.00 | 0.00 | 59 | 1017.8 |
| 20260506145403 | 26 | 108 | 8.0 | 11.3 | 0.00 | 0.00 | 0.00 | 63 | 1017.7 |
| 20260506144901 | 27 | 181 | 9.7 | 11.3 | 0.00 | 0.00 | 0.00 | 57 | 1017.9 |
| 20260506144357 | 26 | 160 | 8.0 | 8.0 | 0.00 | 0.00 | 0.00 | 60 | 1017.8 |
| 20260506143856 | 26 | 188 | 9.7 | 12.9 | 0.00 | 0.00 | 0.00 | 63 | 1017.8 |
| 20260506143352 | 26 | 208 | 8.0 | 9.7 | 0.00 | 0.00 | 0.00 | 60 | 1017.9 |
| 20260506142851 | 26 | 173 | 6.4 | 8.0 | 0.00 | 0.00 | 0.00 | 61 | 1017.7 |
| 20260506142348 | 26 | 191 | 8.0 | 11.3 | 0.00 | 0.00 | 0.00 | 63 | 1017.9 |
| 20260506141847 | 25 | 148 | 4.8 | 4.8 | 0.00 | 0.00 | 0.00 | 69 | 1017.7 |
| 20260506141344 | 25 | 181 | 8.0 | 11.3 | 0.00 | 0.00 | 0.00 | 69 | 1017.6 |
| 20260506140842 | 25 | 180 | 8.0 | 11.3 | 0.00 | 0.00 | 0.00 | 72 | 1017.7 |
| 20260506140339 | 25 | 188 | 14.5 | 17.7 | 0.00 | 0.00 | 0.00 | 70 | 1017.5 |
| 20260506135836 | 25 | 182 | 9.7 | 11.3 | 0.00 | 0.00 | 0.00 | 72 | 1017.8 |
| 20260506135332 | 25 | 198 | 11.3 | 12.9 | 0.00 | 0.00 | 0.00 | 72 | 1017.7 |
| 20260506134828 | 24 | 157 | 6.4 | 8.0 | 0.00 | 0.00 | 0.00 | 73 | 1017.7 |
| 20260506134325 | 23 | 173 | 11.3 | 12.9 | 0.00 | 0.00 | 0.00 | 73 | 1017.7 |
| 20260506133822 | 23 | 99 | 8.0 | 12.9 | 0.00 | 0.00 | 0.00 | 73 | 1017.8 |
| 20260506133319 | 23 | 192 | 11.3 | 12.9 | 0.00 | 0.00 | 0.00 | 73 | 1017.7 |
| 20260506132816 | 23 | 167 | 9.7 | 11.3 | 0.00 | 0.00 | 0.00 | 73 | 1017.6 |
| 20260506132313 | 23 | 210 | 9.7 | 12.9 | 0.00 | 0.00 | 0.00 | 74 | 1017.6 |
| 20260506131811 | 23 | 146 | 8.0 | 11.3 | 0.00 | 0.00 | 0.00 | 74 | 1017.6 |
| 20260506131307 | 23 | 184 | 11.3 | 12.9 | 0.00 | 0.00 | 0.00 | 72 | 1017.7 |
| 20260506130804 | 23 | 114 | 8.0 | 9.7 | 0.00 | 0.00 | 0.00 | 70 | 1017.7 |
| 20260506130300 | 23 | 178 | 8.0 | 12.9 | 0.00 | 0.00 | 0.00 | 70 | 1017.5 |
| 20260506125759 | 23 | 167 | 8.0 | 9.7 | 0.00 | 0.00 | 0.00 | 70 | 1017.6 |
| 20260506125256 | 23 | 187 | 6.4 | 9.7 | 0.00 | 0.00 | 0.00 | 70 | 1017.6 |
| 20260506124755 | 23 | 199 | 4.8 | 9.7 | 0.00 | 0.00 | 0.00 | 69 | 1017.4 |
| 20260506124252 | 23 | 205 | 4.8 | 4.8 | 0.00 | 0.00 | 0.00 | 70 | 1017.5 |
| 20260506123749 | 23 | 94 | 9.7 | 12.9 | 0.00 | 0.00 | 0.00 | 70 | 1017.5 |
| 20260506123248 | 22 | 179 | 6.4 | 8.0 | 0.00 | 0.00 | 0.00 | 71 | 1017.4 |
| 20260506122744 | 22 | 179 | 3.2 | 4.8 | 0.00 | 0.00 | 0.00 | 71 | 1017.5 |
| 20260506122241 | 22 | 170 | 4.8 | 8.0 | 0.00 | 0.00 | 0.00 | 72 | 1017.2 |
| 20260506121739 | 22 | 190 | 6.4 | 9.7 | 0.00 | 0.00 | 0.00 | 71 | 1017.3 |
| 20260506121236 | 22 | 175 | 1.6 | 1.6 | 0.00 | 0.00 | 0.00 | 72 | 1017.3 |
| 20260506120733 | 22 | 175 | 3.2 | 4.8 | 0.00 | 0.00 | 0.00 | 73 | 1017.2 |
| 20260506120231 | 22 | 164 | 4.8 | 4.8 | 0.00 | 0.00 | 0.00 | 73 | 1017.3 |
| 20260506115729 | 21 | 180 | 4.8 | 4.8 | 0.00 | 0.00 | 0.00 | 74 | 1017.3 |
| 20260506115227 | 21 | 213 | 4.8 | 4.8 | 0.00 | 0.00 | 0.00 | 75 | 1017.0 |
| 20260506114724 | 21 | 167 | 3.2 | 3.2 | 0.00 | 0.00 | 0.00 | 75 | 1017.1 |
| 20260506114221 | 21 | 175 | 4.8 | 8.0 | 0.00 | 0.00 | 0.00 | 76 | 1017.1 |
| 20260506113720 | 21 | 208 | 4.8 | 3.2 | 0.00 | 0.00 | 0.00 | 76 | 1017.0 |
| 20260506113217 | 21 | 187 | 1.6 | 1.6 | 0.00 | 0.00 | 0.00 | 76 | 1016.8 |
| 20260506112713 | 20 | 197 | 6.4 | 8.0 | 0.00 | 0.00 | 0.00 | 76 | 1016.8 |
| 20260506112211 | 20 | 182 | 1.6 | 1.6 | 0.00 | 0.00 | 0.00 | 77 | 1016.8 |
| 20260506111708 | 20 | 173 | 3.2 | 3.2 | 0.00 | 0.00 | 0.00 | 77 | 1016.4 |
| 20260506111206 | 20 | 148 | 1.6 | 1.6 | 0.00 | 0.00 | 0.00 | 78 | 1016.6 |
| 20260506110703 | 20 | 155 | 1.6 | 1.6 | 0.00 | 0.00 | 0.00 | 78 | 1016.4 |
| 20260506110200 | 20 | 130 | 1.6 | 1.6 | 0.00 | 0.00 | 0.00 | 78 | 1016.4 |
| 20260506105657 | 20 | 172 | 1.6 | 1.6 | 0.00 | 0.00 | 0.00 | 78 | 1016.1 |
| 20260506105154 | 20 | 185 | 1.6 | 1.6 | 0.00 | 0.00 | 0.00 | 78 | 1016.4 |
| 20260506104652 | 20 | 196 | 3.2 | 4.8 | 0.00 | 0.00 | 0.00 | 78 | 1016.6 |
| 20260506104149 | 20 | 207 | 3.2 | 3.2 | 0.00 | 0.00 | 0.00 | 78 | 1016.5 |
| 20260506103646 | 20 | 195 | 1.6 | 1.6 | 0.00 | 0.00 | 0.00 | 78 | 1016.6 |
| 20260506103143 | 20 | 232 | 3.2 | 3.2 | 0.00 | 0.00 | 0.00 | 77 | 1016.7 |
| 20260506102641 | 20 | 180 | 3.2 | 1.6 | 0.00 | 0.00 | 0.00 | 77 | 1016.6 |
| 20260506102138 | 20 | 210 | 3.2 | 4.8 | 0.00 | 0.00 | 0.00 | 77 | 1016.4 |
| 20260506101635 | 20 | 154 | 0.0 | 1.6 | 0.00 | 0.00 | 0.00 | 76 | 1016.3 |
| 20260506101132 | 20 | 132 | 0.0 | 0.0 | 0.00 | 0.00 | 0.00 | 76 | 1016.4 |
| 20260506100631 | 20 | 186 | 1.6 | 1.6 | 0.00 | 0.00 | 0.00 | 76 | 1016.5 |
| 20260506100128 | 20 | 155 | 4.8 | 3.2 | 0.00 | 0.00 | 0.00 | 76 | 1016.5 |
| 20260506095627 | 20 | 179 | 0.0 | 1.6 | 0.00 | 0.00 | 0.00 | 75 | 1016.4 |
| 20260506095123 | 20 | 144 | 1.6 | 1.6 | 0.00 | 0.00 | 0.00 | 75 | 1016.3 |
| 20260506094620 | 20 | 181 | 3.2 | 4.8 | 0.00 | 0.00 | 0.00 | 75 | 1016.3 |
| 20260506094118 | 20 | 179 | 3.2 | 3.2 | 0.00 | 0.00 | 0.00 | 75 | 1016.3 |
| 20260506093616 | 20 | 162 | 1.6 | 1.6 | 0.00 | 0.00 | 0.00 | 75 | 1016.2 |
| 20260506093113 | 20 | 171 | 3.2 | 3.2 | 0.00 | 0.00 | 0.00 | 75 | 1016.3 |
| 20260506092611 | 20 | 154 | 3.2 | 3.2 | 0.00 | 0.00 | 0.00 | 75 | 1016.1 |
| 20260506092108 | 20 | 173 | 1.6 | 1.6 | 0.00 | 0.00 | 0.00 | 75 | 1016.1 |
| 20260506091606 | 20 | 168 | 3.2 | 3.2 | 0.00 | 0.00 | 0.00 | 75 | 1016.0 |
| 20260506091103 | 20 | 206 | 3.2 | 4.8 | 0.00 | 0.00 | 0.00 | 75 | 1016.0 |
| 20260506090601 | 20 | 186 | 4.8 | 3.2 | 0.00 | 0.00 | 0.00 | 75 | 1016.2 |
| 20260506090057 | 20 | 194 | 1.6 | 3.2 | 0.00 | 0.00 | 0.00 | 75 | 1016.1 |
| 20260506085554 | 20 | 231 | 4.8 | 4.8 | 0.00 | 0.00 | 0.00 | 74 | 1016.3 |
| 20260506085050 | 20 | 121 | 0.0 | 0.0 | 0.00 | 0.00 | 0.00 | 74 | 1016.1 |
| 20260506084547 | 20 | 170 | 1.6 | 1.6 | 0.00 | 0.00 | 0.00 | 74 | 1016.3 |
| 20260506084043 | 20 | 161 | 0.0 | 0.0 | 0.00 | 0.00 | 0.00 | 74 | 1016.2 |
| 20260506083541 | 20 | 166 | 1.6 | 3.2 | 0.00 | 0.00 | 0.00 | 73 | 1016.4 |
| 20260506083038 | 20 | 139 | 0.0 | 0.0 | 0.00 | 0.00 | 0.00 | 73 | 1016.0 |
| 20260506082534 | 20 | 161 | 1.6 | 1.6 | 0.00 | 0.00 | 0.00 | 73 | 1016.2 |
| 20260506082030 | 20 | 195 | 3.2 | 3.2 | 0.00 | 0.00 | 0.00 | 72 | 1016.2 |
| 20260506081529 | 20 | 169 | 1.6 | 1.6 | 0.00 | 0.00 | 0.00 | 71 | 1016.2 |
| 20260506081026 | 20 | 150 | 0.0 | 0.0 | 0.00 | 0.00 | 0.00 | 71 | 1016.2 |
| 20260506080523 | 20 | 197 | 4.8 | 3.2 | 0.00 | 0.00 | 0.00 | 71 | 1015.9 |
| 20260506073507 | 20 | 183 | 3.2 | 3.2 | 0.00 | 0.00 | 0.00 | 70 | 1015.7 |
| 20260506073004 | 20 | 183 | 4.8 | 8.0 | 0.00 | 0.00 | 0.00 | 70 | 1015.8 |
| 20260506072501 | 20 | 146 | 4.8 | 3.2 | 0.00 | 0.00 | 0.00 | 71 | 1015.9 |
| 20260506071959 | 20 | 180 | 4.8 | 3.2 | 0.00 | 0.00 | 0.00 | 72 | 1015.7 |
| 20260506071456 | 20 | 159 | 1.6 | 1.6 | 0.00 | 0.00 | 0.00 | 73 | 1016.1 |
| 20260506070953 | 20 | 162 | 1.6 | 3.2 | 0.00 | 0.00 | 0.00 | 73 | 1016.0 |
| 20260506070450 | 20 | 185 | 1.6 | 1.6 | 0.00 | 0.00 | 0.00 | 73 | 1016.1 |
| 20260506062428 | 20 | 169 | 3.2 | 3.2 | 0.00 | 0.00 | 0.00 | 76 | 1016.5 |
| 20260506061923 | 20 | 156 | 0.0 | 1.6 | 0.00 | 0.00 | 0.00 | 75 | 1016.6 |
| 20260506061420 | 20 | 161 | 3.2 | 3.2 | 0.00 | 0.00 | 0.00 | 75 | 1016.8 |
| 20260506060918 | 20 | 181 | 1.6 | 1.6 | 0.00 | 0.00 | 0.00 | 75 | 1016.8 |
| 20260506060416 | 20 | 179 | 0.0 | 0.0 | 0.00 | 0.00 | 0.00 | 75 | 1016.6 |
| 20260506051348 | 20 | 166 | 1.6 | 1.6 | 0.00 | 0.00 | 0.00 | 71 | 1017.0 |
| 20260506050845 | 20 | 184 | 1.6 | 1.6 | 0.00 | 0.00 | 0.00 | 71 | 1017.0 |
| 20260506050343 | 20 | 165 | 0.0 | 0.0 | 0.00 | 0.00 | 0.00 | 70 | 1017.2 |
| 20260506044833 | 21 | 189 | 1.6 | 1.6 | 0.00 | 0.00 | 0.00 | 70 | 1017.1 |
| 20260506044331 | 21 | 179 | 1.6 | 1.6 | 0.00 | 0.00 | 0.00 | 70 | 1017.1 |
| 20260506043828 | 22 | 198 | 1.6 | 1.6 | 0.00 | 0.00 | 0.00 | 69 | 1017.3 |
| 20260506043325 | 22 | 177 | 4.8 | 4.8 | 0.00 | 0.00 | 0.00 | 68 | 1017.3 |
| 20260506042823 | 22 | 186 | 8.0 | 9.7 | 0.00 | 0.00 | 0.00 | 68 | 1017.4 |
| 20260506042322 | 22 | 173 | 9.7 | 11.3 | 0.00 | 0.00 | 0.00 | 68 | 1017.1 |
| 20260506041821 | 22 | 159 | 6.4 | 8.0 | 0.00 | 0.00 | 0.00 | 67 | 1017.2 |
| 20260506041317 | 22 | 179 | 8.0 | 11.3 | 0.00 | 0.00 | 0.00 | 66 | 1017.3 |